Date,TemperatureHighF,TemperatureAvgF,TemperatureLowF,DewpointHighF,DewpointAvgF,DewpointLowF,HumidityHigh,HumidityAvg,HumidityLow,PressureMaxIn,PressureMinIn,WindSpeedMaxMPH,WindSpeedAvgMPH,GustSpeedMaxMPH,PrecipitationSumIn
2013-3-1,44.0,36.2,30.0,34.0,28.0,23.0,98,74,51,29.62,29.46,4,1,10,0.00
2013-3-2,38.0,34.0,31.0,27.0,25.0,23.0,77,69,61,29.62,29.55,3,0,7,0.00
2013-3-3,36.0,30.6,28.0,29.0,23.7,20.0,89,76,65,29.58,29.51,4,1,10,0.00
2013-3-4,37.0,30.0,24.0,24.0,20.0,17.0,76,67,53,29.70,29.55,7,2,16,0.01
2013-3-5,44.0,33.4,26.0,29.0,23.4,18.0,84,67,50,29.99,29.70,3,1,9,0.01
2013-3-6,38.0,34.3,31.0,34.0,30.5,27.0,94,86,70,29.97,29.91,5,1,13,0.06
2013-3-7,34.0,31.5,29.0,29.0,27.6,26.0,94,86,76,29.96,29.91,5,1,10,0.15
2013-3-8,36.0,31.6,29.0,33.0,29.1,24.0,96,91,79,30.08,29.85,1,0,5,0.79
2013-3-9,56.0,36.6,22.0,28.0,21.6,14.0,89,61,21,30.26,30.07,3,0,6,0.01
2013-3-10,49.0,34.3,18.0,32.0,25.3,16.0,95,73,41,30.32,30.21,4,0,6,0.00
2013-3-11,51.0,40.1,33.0,39.0,33.6,29.0,95,79,50,30.23,30.07,5,1,9,0.00
2013-3-12,53.0,48.4,41.0,53.0,46.4,39.0,99,93,80,30.07,29.65,5,1,12,0.67
2013-3-13,48.0,38.7,30.0,39.0,27.7,19.0,94,67,35,29.73,29.66,5,1,13,0.49
2013-3-14,36.0,28.6,22.0,26.0,13.7,6.0,68,54,40,29.76,29.67,9,2,15,0.00
2013-3-15,39.0,28.9,21.0,29.0,14.7,4.0,85,57,32,29.79,29.57,8,2,12,0.00
2013-3-16,37.0,31.1,24.0,26.0,14.4,8.0,77,51,31,29.79,29.62,4,0,10,0.00
2013-3-17,36.0,28.9,23.0,16.0,9.1,1.0,71,46,24,30.21,29.79,5,1,13,0.00
2013-3-18,37.0,27.0,16.0,24.0,4.9,-2.0,83,41,20,30.35,30.09,3,0,8,0.00
2013-3-19,35.0,30.9,27.0,33.0,28.9,24.0,96,92,86,30.09,29.55,4,1,11,0.13
2013-3-20,37.0,29.4,24.0,29.0,19.6,16.0,96,68,43,29.72,29.62,7,2,12,0.07
2013-3-21,37.0,27.8,19.0,24.0,17.4,12.0,89,67,36,29.73,29.52,3,0,6,0.12
2013-3-22,38.0,29.6,21.0,24.0,17.2,12.0,71,60,43,29.69,29.54,10,2,12,0.10
2013-3-23,39.0,33.0,27.0,22.0,19.3,16.0,75,58,41,29.74,29.62,9,2,20,0.02
2013-3-24,47.0,35.5,28.0,25.0,21.2,17.0,79,57,35,29.76,29.65,4,1,12,0.01
2013-3-25,42.0,34.7,27.0,29.0,25.5,22.0,84,69,54,29.69,29.41,3,1,9,0.00
2013-3-26,45.0,36.5,29.0,30.0,25.4,20.0,79,65,42,29.73,29.47,3,0,7,0.00
2013-3-27,52.0,37.6,24.0,31.0,24.0,19.0,85,61,35,29.81,29.71,5,1,10,0.00
2013-3-28,49.0,40.2,34.0,37.0,31.2,25.0,95,72,41,29.96,29.80,3,0,6,0.03
2013-3-29,55.0,42.3,32.0,35.0,30.5,25.0,96,67,36,30.00,29.92,5,1,8,0.03
2013-3-30,55.0,43.5,32.0,31.0,23.3,14.0,81,50,20,30.03,29.95,4,1,11,0.01
2013-3-31,55.0,41.2,25.0,40.0,25.7,-99.9,89,61,27,30.05,29.62,7,1,12,0.04